| time (UTC) | temp F | wind direction | speed MPH | gust MPH | rain 1hr in | rain 24hr in | rain mn in | humidity % | barometer mb |
| 20260506191036 | 51 | 229 | 11.0 | 15.0 | 0.00 | 0.00 | 0.00 | 60 | 1010.2 |
| 20260506190546 | 52 | 223 | 12.0 | 15.0 | 0.00 | 0.00 | 0.00 | 64 | 1010.3 |
| 20260506190034 | 52 | 241 | 12.0 | 15.0 | 0.00 | 0.00 | 0.00 | 58 | 1010.3 |
| 20260506185545 | 52 | 240 | 12.0 | 15.0 | 0.00 | 0.00 | 0.00 | 59 | 1010.3 |
| 20260506185103 | 52 | 239 | 11.0 | 13.0 | 0.00 | 0.00 | 0.00 | 58 | 1010.3 |
| 20260506184543 | 52 | 242 | 11.0 | 14.0 | 0.00 | 0.00 | 0.00 | 57 | 1010.4 |
| 20260506184031 | 52 | 231 | 10.0 | 14.0 | 0.00 | 0.00 | 0.00 | 57 | 1010.4 |
| 20260506183541 | 51 | 246 | 9.0 | 12.0 | 0.00 | 0.00 | 0.00 | 57 | 1010.4 |
| 20260506183029 | 51 | 212 | 9.0 | 12.0 | 0.00 | 0.00 | 0.00 | 56 | 1010.3 |
| 20260506182536 | 52 | 221 | 9.0 | 12.0 | 0.00 | 0.00 | 0.00 | 57 | 1010.4 |
| 20260506182046 | 50 | 211 | 9.0 | 12.0 | 0.00 | 0.00 | 0.00 | 59 | 1010.4 |
| 20260506181552 | 50 | 245 | 9.0 | 12.0 | 0.00 | 0.00 | 0.00 | 58 | 1010.5 |
| 20260506181025 | 50 | 219 | 4.0 | 9.0 | 0.00 | 0.00 | 0.00 | 62 | 1010.6 |
| 20260506180532 | 50 | 210 | 6.0 | 10.0 | 0.00 | 0.00 | 0.00 | 61 | 1010.6 |
| 20260506180110 | 49 | 244 | 7.0 | 10.0 | 0.00 | 0.00 | 0.00 | 60 | 1010.6 |
| 20260506175539 | 49 | 227 | 7.0 | 9.0 | 0.00 | 0.00 | 0.00 | 60 | 1010.5 |
| 20260506175030 | 49 | 225 | 4.0 | 6.0 | 0.00 | 0.00 | 0.00 | 62 | 1010.7 |
| 20260506174536 | 50 | 194 | 4.0 | 6.0 | 0.00 | 0.00 | 0.00 | 65 | 1010.7 |
| 20260506174037 | 49 | 179 | 2.0 | 5.0 | 0.00 | 0.00 | 0.00 | 67 | 1010.6 |
| 20260506173525 | 49 | 193 | 3.0 | 5.0 | 0.00 | 0.00 | 0.00 | 68 | 1010.6 |
| 20260506173038 | 48 | 203 | 3.0 | 7.0 | 0.00 | 0.00 | 0.00 | 66 | 1010.7 |
| 20260506172032 | 49 | 212 | 5.0 | 7.0 | 0.00 | 0.00 | 0.00 | 69 | 1010.9 |
| 20260506171522 | 47 | 176 | 5.0 | 7.0 | 0.00 | 0.00 | 0.00 | 70 | 1010.8 |
| 20260506171030 | 47 | 163 | 4.0 | 7.0 | 0.00 | 0.00 | 0.00 | 68 | 1010.9 |
| 20260506170536 | 47 | 214 | 5.0 | 7.0 | 0.00 | 0.00 | 0.00 | 67 | 1011.0 |
| 20260506170030 | 46 | 210 | 4.0 | 7.0 | 0.00 | 0.00 | 0.00 | 68 | 1011.0 |
| 20260506165522 | 46 | 193 | 4.0 | 7.0 | 0.00 | 0.00 | 0.00 | 68 | 1011.1 |
| 20260506165033 | 47 | 160 | 5.0 | 7.0 | 0.00 | 0.00 | 0.00 | 69 | 1011.1 |
| 20260506164541 | 46 | 174 | 3.0 | 6.0 | 0.00 | 0.00 | 0.00 | 66 | 1011.1 |
| 20260506164043 | 46 | 186 | 4.0 | 7.0 | 0.00 | 0.00 | 0.00 | 70 | 1011.2 |
| 20260506163530 | 47 | 234 | 5.0 | 8.0 | 0.00 | 0.00 | 0.00 | 67 | 1011.2 |
| 20260506163039 | 47 | 215 | 5.0 | 8.0 | 0.00 | 0.00 | 0.00 | 70 | 1011.2 |
| 20260506162545 | 46 | 209 | 5.0 | 9.0 | 0.00 | 0.00 | 0.00 | 68 | 1011.3 |
| 20260506162031 | 46 | 231 | 6.0 | 8.0 | 0.00 | 0.00 | 0.00 | 70 | 1011.3 |
| 20260506161540 | 46 | 241 | 7.0 | 8.0 | 0.00 | 0.00 | 0.00 | 70 | 1011.3 |
| 20260506161033 | 47 | 226 | 6.0 | 10.0 | 0.00 | 0.00 | 0.00 | 65 | 1011.3 |
| 20260506160541 | 47 | 246 | 5.0 | 10.0 | 0.00 | 0.00 | 0.00 | 72 | 1011.3 |
| 20260506155529 | 46 | 35 | 2.0 | 6.0 | 0.00 | 0.00 | 0.00 | 68 | 1011.3 |
| 20260506155040 | 46 | 342 | 3.0 | 7.0 | 0.00 | 0.00 | 0.00 | 68 | 1011.4 |
| 20260506154525 | 46 | 51 | 4.0 | 7.0 | 0.00 | 0.00 | 0.00 | 68 | 1011.4 |
| 20260506154037 | 46 | 105 | 2.0 | 6.0 | 0.00 | 0.00 | 0.00 | 68 | 1011.4 |
| 20260506153524 | 46 | 68 | 3.0 | 6.0 | 0.00 | 0.00 | 0.00 | 69 | 1011.5 |
| 20260506153038 | 46 | 28 | 3.0 | 7.0 | 0.00 | 0.00 | 0.00 | 69 | 1011.4 |
| 20260506152524 | 46 | 351 | 3.0 | 7.0 | 0.00 | 0.00 | 0.00 | 69 | 1011.3 |
| 20260506152037 | 46 | 351 | 4.0 | 6.0 | 0.00 | 0.00 | 0.00 | 67 | 1011.3 |
| 20260506151529 | 45 | 1 | 2.0 | 6.0 | 0.00 | 0.00 | 0.00 | 69 | 1011.4 |
| 20260506151038 | 45 | 344 | 4.0 | 7.0 | 0.00 | 0.00 | 0.00 | 69 | 1011.3 |
| 20260506150522 | 45 | 353 | 5.0 | 7.0 | 0.00 | 0.00 | 0.00 | 68 | 1011.3 |
| 20260506150033 | 45 | 40 | 2.0 | 8.0 | 0.00 | 0.00 | 0.00 | 69 | 1011.2 |
| 20260506145547 | 44 | 349 | 4.0 | 8.0 | 0.00 | 0.00 | 0.00 | 70 | 1011.2 |
| 20260506145043 | 44 | 1 | 4.0 | 8.0 | 0.00 | 0.00 | 0.00 | 69 | 1011.1 |
| 20260506144552 | 44 | 331 | 5.0 | 8.0 | 0.00 | 0.00 | 0.00 | 70 | 1011.1 |
| 20260506144025 | 44 | 41 | 3.0 | 8.0 | 0.00 | 0.00 | 0.00 | 69 | 1011.1 |
| 20260506143616 | 44 | 1 | 4.0 | 8.0 | 0.00 | 0.00 | 0.00 | 70 | 1011.0 |
| 20260506143033 | 44 | 8 | 5.0 | 10.0 | 0.00 | 0.00 | 0.00 | 70 | 1011.1 |
| 20260506142522 | 44 | 6 | 5.0 | 10.0 | 0.00 | 0.00 | 0.00 | 71 | 1011.1 |
| 20260506142033 | 44 | 340 | 4.0 | 9.0 | 0.00 | 0.00 | 0.00 | 70 | 1011.1 |
| 20260506141529 | 44 | 15 | 4.0 | 10.0 | 0.00 | 0.00 | 0.00 | 71 | 1011.1 |
| 20260506141039 | 43 | 46 | 4.0 | 10.0 | 0.00 | 0.00 | 0.00 | 71 | 1010.9 |
| 20260506140525 | 43 | 11 | 4.0 | 8.0 | 0.00 | 0.00 | 0.00 | 71 | 1010.9 |
| 20260506140041 | 43 | 328 | 4.0 | 7.0 | 0.00 | 0.00 | 0.00 | 72 | 1010.9 |
| 20260506135522 | 42 | 354 | 3.0 | 8.0 | 0.00 | 0.00 | 0.00 | 71 | 1010.8 |
| 20260506135032 | 42 | 13 | 3.0 | 9.0 | 0.00 | 0.00 | 0.00 | 71 | 1010.9 |
| 20260506134521 | 42 | 20 | 3.0 | 9.0 | 0.00 | 0.00 | 0.00 | 70 | 1010.8 |
| 20260506134048 | 42 | 329 | 4.0 | 9.0 | 0.00 | 0.00 | 0.00 | 72 | 1010.8 |
| 20260506133537 | 42 | 28 | 4.0 | 9.0 | 0.00 | 0.00 | 0.00 | 71 | 1010.7 |
| 20260506133026 | 42 | 13 | 3.0 | 9.0 | 0.00 | 0.00 | 0.00 | 71 | 1010.8 |
| 20260506132559 | 42 | 330 | 4.0 | 9.0 | 0.00 | 0.00 | 0.00 | 72 | 1010.7 |
| 20260506132032 | 42 | 25 | 6.0 | 9.0 | 0.00 | 0.00 | 0.00 | 71 | 1010.7 |
| 20260506131521 | 42 | 1 | 5.0 | 10.0 | 0.00 | 0.00 | 0.00 | 71 | 1010.6 |
| 20260506131115 | 42 | 13 | 3.0 | 12.0 | 0.00 | 0.00 | 0.00 | 71 | 1010.5 |
| 20260506130529 | 42 | 336 | 5.0 | 12.0 | 0.00 | 0.00 | 0.00 | 69 | 1010.5 |
| 20260506130039 | 43 | 11 | 5.0 | 12.0 | 0.00 | 0.00 | 0.00 | 69 | 1010.3 |
| 20260506125525 | 43 | 11 | 7.0 | 12.0 | 0.00 | 0.00 | 0.00 | 69 | 1010.4 |
| 20260506125036 | 43 | 20 | 6.0 | 11.0 | 0.00 | 0.00 | 0.00 | 69 | 1010.2 |
| 20260506124525 | 42 | 20 | 6.0 | 11.0 | 0.00 | 0.00 | 0.00 | 70 | 1010.2 |
| 20260506124032 | 42 | 18 | 5.0 | 10.0 | 0.00 | 0.00 | 0.00 | 70 | 1010.1 |
| 20260506123541 | 42 | 345 | 5.0 | 11.0 | 0.00 | 0.00 | 0.00 | 70 | 1010.1 |
| 20260506123033 | 42 | 344 | 6.0 | 10.0 | 0.00 | 0.00 | 0.00 | 69 | 1010.0 |
| 20260506122542 | 42 | 49 | 5.0 | 10.0 | 0.00 | 0.00 | 0.00 | 70 | 1010.0 |
| 20260506122054 | 42 | 321 | 3.0 | 10.0 | 0.00 | 0.00 | 0.00 | 71 | 1009.8 |
| 20260506121522 | 42 | 8 | 5.0 | 12.0 | 0.00 | 0.00 | 0.00 | 70 | 1009.8 |
| 20260506121036 | 42 | 4 | 5.0 | 12.0 | 0.00 | 0.00 | 0.00 | 71 | 1009.8 |
| 20260506120522 | 42 | 13 | 5.0 | 14.0 | 0.00 | 0.00 | 0.00 | 71 | 1009.9 |
| 20260506120026 | 41 | 25 | 6.0 | 13.0 | 0.00 | 0.00 | 0.00 | 71 | 1010.0 |
| 20260506115533 | 41 | 63 | 5.0 | 13.0 | 0.00 | 0.00 | 0.00 | 71 | 1010.0 |
| 20260506115040 | 41 | 343 | 4.0 | 12.0 | 0.00 | 0.00 | 0.00 | 71 | 1010.0 |
| 20260506114528 | 41 | 20 | 6.0 | 13.0 | 0.00 | 0.00 | 0.00 | 72 | 1010.1 |
| 20260506114040 | 41 | 25 | 6.0 | 13.0 | 0.00 | 0.00 | 0.00 | 72 | 1010.0 |
| 20260506113544 | 41 | 6 | 5.0 | 12.0 | 0.00 | 0.00 | 0.00 | 73 | 1009.9 |
| 20260506113037 | 41 | 27 | 5.0 | 12.0 | 0.00 | 0.00 | 0.00 | 73 | 1009.8 |
| 20260506112545 | 40 | 23 | 6.0 | 13.0 | 0.00 | 0.00 | 0.00 | 74 | 1009.7 |
| 20260506112036 | 40 | 27 | 5.0 | 13.0 | 0.00 | 0.00 | 0.00 | 74 | 1009.8 |
| 20260506111541 | 40 | 25 | 5.0 | 14.0 | 0.00 | 0.00 | 0.00 | 76 | 1009.7 |
| 20260506111041 | 40 | 340 | 5.0 | 14.0 | 0.00 | 0.00 | 0.00 | 77 | 1009.4 |
| 20260506110544 | 40 | 352 | 5.0 | 12.0 | 0.00 | 0.00 | 0.00 | 79 | 1009.4 |
| 20260506110047 | 40 | 44 | 6.0 | 12.0 | 0.00 | 0.00 | 0.00 | 81 | 1009.2 |
| 20260506105551 | 40 | 20 | 5.0 | 10.0 | 0.00 | 0.00 | 0.00 | 83 | 1009.0 |
| 20260506105037 | 40 | 21 | 5.0 | 9.0 | 0.00 | 0.00 | 0.00 | 83 | 1008.9 |
| 20260506104544 | 40 | 356 | 4.0 | 9.0 | 0.00 | 0.00 | 0.00 | 83 | 1008.8 |
| 20260506104034 | 40 | 4 | 5.0 | 12.0 | 0.00 | 0.00 | 0.00 | 83 | 1008.7 |
| 20260506103522 | 40 | 338 | 5.0 | 12.0 | 0.00 | 0.00 | 0.00 | 83 | 1008.5 |
| 20260506103029 | 40 | 18 | 5.0 | 12.0 | 0.00 | 0.00 | 0.00 | 82 | 1008.4 |
| 20260506102537 | 40 | 44 | 5.0 | 12.0 | 0.00 | 0.00 | 0.00 | 82 | 1008.3 |
| 20260506102121 | 40 | 300 | 5.0 | 11.0 | 0.00 | 0.00 | 0.00 | 82 | 1008.3 |
| 20260506101528 | 40 | 37 | 4.0 | 10.0 | 0.00 | 0.00 | 0.00 | 82 | 1008.2 |
| 20260506101040 | 40 | 46 | 5.0 | 10.0 | 0.00 | 0.00 | 0.00 | 81 | 1008.1 |
| 20260506100552 | 40 | 39 | 6.0 | 10.0 | 0.00 | 0.00 | 0.00 | 81 | 1008.2 |
| 20260506100028 | 40 | 348 | 4.0 | 10.0 | 0.00 | 0.00 | 0.00 | 81 | 1008.1 |
| 20260506095538 | 40 | 18 | 5.0 | 14.0 | 0.00 | 0.00 | 0.00 | 81 | 1007.9 |
| 20260506095030 | 40 | 8 | 5.0 | 14.0 | 0.00 | 0.00 | 0.00 | 81 | 1008.1 |
| 20260506094534 | 40 | 30 | 5.0 | 13.0 | 0.00 | 0.00 | 0.00 | 81 | 1008.1 |
| 20260506094026 | 41 | 1 | 5.0 | 12.0 | 0.00 | 0.00 | 0.00 | 81 | 1008.0 |
| 20260506093534 | 41 | 33 | 5.0 | 12.0 | 0.00 | 0.00 | 0.00 | 80 | 1008.0 |
| 20260506093029 | 41 | 8 | 5.0 | 12.0 | 0.00 | 0.00 | 0.00 | 80 | 1008.0 |
| 20260506092559 | 41 | 51 | 5.0 | 12.0 | 0.00 | 0.00 | 0.00 | 81 | 1008.0 |
| 20260506092031 | 41 | 49 | 5.0 | 14.0 | 0.00 | 0.00 | 0.00 | 80 | 1008.1 |
| 20260506091540 | 41 | 18 | 5.0 | 14.0 | 0.00 | 0.00 | 0.00 | 80 | 1008.1 |
| 20260506091103 | 41 | 8 | 5.0 | 9.0 | 0.00 | 0.00 | 0.00 | 79 | 1008.1 |
| 20260506090532 | 41 | 9 | 4.0 | 11.0 | 0.00 | 0.00 | 0.00 | 80 | 1008.2 |
| 20260506090049 | 41 | 18 | 4.0 | 11.0 | 0.00 | 0.00 | 0.00 | 79 | 1008.0 |
| 20260506085531 | 41 | 34 | 5.0 | 12.0 | 0.00 | 0.00 | 0.00 | 78 | 1008.0 |
| 20260506085024 | 41 | 35 | 5.0 | 14.0 | 0.00 | 0.00 | 0.00 | 78 | 1008.1 |
| 20260506084532 | 41 | 37 | 7.0 | 14.0 | 0.00 | 0.00 | 0.00 | 78 | 1008.0 |
| 20260506084027 | 41 | 46 | 5.0 | 13.0 | 0.00 | 0.00 | 0.00 | 78 | 1008.0 |
| 20260506083531 | 41 | 16 | 4.0 | 13.0 | 0.00 | 0.00 | 0.00 | 78 | 1008.0 |
| 20260506083024 | 41 | 1 | 6.0 | 13.0 | 0.00 | 0.00 | 0.00 | 77 | 1008.1 |
| 20260506082531 | 41 | 63 | 5.0 | 12.0 | 0.00 | 0.00 | 0.00 | 77 | 1008.2 |
| 20260506082049 | 41 | 56 | 6.0 | 11.0 | 0.00 | 0.00 | 0.00 | 76 | 1008.1 |
| 20260506081531 | 41 | 44 | 4.0 | 14.0 | 0.00 | 0.00 | 0.00 | 78 | 1007.8 |
| 20260506081051 | 41 | 49 | 6.0 | 14.0 | 0.00 | 0.00 | 0.00 | 77 | 1007.7 |
| 20260506080538 | 41 | 96 | 7.0 | 14.0 | 0.00 | 0.00 | 0.00 | 78 | 1007.6 |
| 20260506073527 | 42 | 344 | 4.0 | 11.0 | 0.00 | 0.00 | 0.00 | 81 | 1007.7 |
| 20260506073038 | 42 | 49 | 5.0 | 14.0 | 0.00 | 0.00 | 0.00 | 81 | 1007.4 |
| 20260506072549 | 42 | 100 | 5.0 | 14.0 | 0.00 | 0.00 | 0.00 | 81 | 1007.5 |
| 20260506072042 | 42 | 59 | 7.0 | 12.0 | 0.00 | 0.00 | 0.00 | 81 | 1007.6 |
| 20260506071529 | 43 | 139 | 5.0 | 14.0 | 0.00 | 0.00 | 0.00 | 81 | 1007.8 |
| 20260506071039 | 43 | 23 | 3.0 | 13.0 | 0.00 | 0.00 | 0.00 | 81 | 1007.8 |
| 20260506070528 | 43 | 49 | 4.0 | 13.0 | 0.00 | 0.00 | 0.00 | 81 | 1007.9 |
| 20260506062028 | 43 | 4 | 6.0 | 13.0 | 0.00 | 0.00 | 0.00 | 76 | 1007.6 |
| 20260506061537 | 43 | 28 | 6.0 | 13.0 | 0.00 | 0.00 | 0.00 | 76 | 1007.6 |
| 20260506061029 | 43 | 1 | 6.0 | 12.0 | 0.00 | 0.00 | 0.00 | 76 | 1007.6 |
| 20260506060558 | 44 | 34 | 7.0 | 11.0 | 0.00 | 0.00 | 0.00 | 76 | 1007.9 |
| 20260506051036 | 45 | 74 | 6.0 | 10.0 | 0.00 | 0.00 | 0.00 | 73 | 1007.7 |
| 20260506050541 | 45 | 60 | 3.0 | 9.0 | 0.00 | 0.00 | 0.00 | 72 | 1007.5 |
| 20260506045041 | 45 | 51 | 4.0 | 10.0 | 0.00 | 0.00 | 0.00 | 73 | 1007.2 |
| 20260506044524 | 45 | 49 | 5.0 | 12.0 | 0.00 | 0.00 | 0.00 | 73 | 1007.3 |
| 20260506043538 | 46 | 37 | 4.0 | 10.0 | 0.00 | 0.00 | 0.00 | 73 | 1007.5 |
| 20260506043049 | 46 | 61 | 5.0 | 11.0 | 0.00 | 0.00 | 0.00 | 73 | 1007.5 |
| 20260506042537 | 46 | 89 | 5.0 | 11.0 | 0.00 | 0.00 | 0.00 | 72 | 1007.5 |
| 20260506042031 | 46 | 58 | 5.0 | 11.0 | 0.00 | 0.00 | 0.00 | 73 | 1007.6 |
| 20260506041535 | 46 | 79 | 5.0 | 11.0 | 0.00 | 0.00 | 0.00 | 73 | 1007.6 |
| 20260506041026 | 46 | 66 | 5.0 | 10.0 | 0.00 | 0.00 | 0.00 | 78 | 1007.5 |
| 20260506040536 | 45 | 68 | 3.0 | 7.0 | 0.00 | 0.00 | 0.00 | 76 | 1007.3 |
| 20260506040107 | 45 | 63 | 3.0 | 8.0 | 0.00 | 0.00 | 0.00 | 75 | 1007.2 |
| 20260506035524 | 45 | 30 | 3.0 | 11.0 | 0.00 | 0.17 | 0.00 | 74 | 1007.2 |
| 20260506035037 | 45 | 23 | 4.0 | 11.0 | 0.00 | 0.17 | 0.00 | 74 | 1007.1 |
| 20260506034528 | 45 | 54 | 5.0 | 9.0 | 0.00 | 0.17 | 0.00 | 74 | 1007.1 |
| 20260506034038 | 45 | 41 | 4.0 | 9.0 | 0.00 | 0.17 | 0.00 | 74 | 1007.1 |
| 20260506033552 | 44 | 56 | 3.0 | 6.0 | 0.00 | 0.17 | 0.00 | 72 | 1006.9 |
| 20260506033025 | 44 | 110 | 3.0 | 6.0 | 0.00 | 0.17 | 0.00 | 72 | 1006.9 |
| 20260506032535 | 45 | 56 | 4.0 | 9.0 | 0.00 | 0.17 | 0.00 | 72 | 1006.7 |
| 20260506032048 | 45 | 81 | 6.0 | 9.0 | 0.00 | 0.17 | 0.00 | 73 | 1006.8 |
| 20260506031602 | 45 | 82 | 5.0 | 9.0 | 0.00 | 0.17 | 0.00 | 74 | 1006.7 |
| 20260506031034 | 45 | 95 | 3.0 | 11.0 | 0.00 | 0.17 | 0.00 | 75 | 1006.6 |
| 20260506030539 | 45 | 95 | 7.0 | 13.0 | 0.00 | 0.17 | 0.00 | 75 | 1006.4 |
| 20260506030032 | 45 | 79 | 8.0 | 13.0 | 0.00 | 0.17 | 0.00 | 77 | 1006.5 |
| 20260506025530 | 46 | 89 | 8.0 | 14.0 | 0.00 | 0.17 | 0.00 | 78 | 1006.4 |
| 20260506025037 | 46 | 96 | 7.0 | 14.0 | 0.00 | 0.17 | 0.00 | 79 | 1006.4 |
| 20260506024526 | 46 | 95 | 7.0 | 10.0 | 0.00 | 0.17 | 0.00 | 80 | 1006.4 |
| 20260506023537 | 46 | 66 | 5.0 | 11.0 | 0.00 | 0.17 | 0.00 | 81 | 1006.4 |
| 20260506023029 | 46 | 76 | 5.0 | 11.0 | 0.00 | 0.17 | 0.00 | 82 | 1006.3 |
| 20260506022538 | 46 | 56 | 6.0 | 10.0 | 0.00 | 0.17 | 0.00 | 83 | 1006.3 |
| 20260506022031 | 46 | 60 | 5.0 | 9.0 | 0.00 | 0.17 | 0.00 | 84 | 1006.3 |
| 20260506021536 | 46 | 342 | 4.0 | 13.0 | 0.00 | 0.17 | 0.00 | 84 | 1006.3 |
| 20260506021042 | 46 | 353 | 5.0 | 13.0 | 0.00 | 0.17 | 0.00 | 85 | 1006.2 |
| 20260506020531 | 46 | 58 | 4.0 | 10.0 | 0.00 | 0.17 | 0.00 | 85 | 1006.1 |
| 20260506020041 | 46 | 52 | 4.0 | 10.0 | 0.00 | 0.17 | 0.00 | 85 | 1006.1 |
| 20260506015528 | 46 | 37 | 5.0 | 11.0 | 0.00 | 0.17 | 0.00 | 86 | 1006.0 |
| 20260506015024 | 46 | 56 | 5.0 | 11.0 | 0.00 | 0.17 | 0.00 | 86 | 1006.0 |
| 20260506014537 | 46 | 1 | 3.0 | 11.0 | 0.00 | 0.17 | 0.00 | 86 | 1005.8 |
| 20260506014025 | 46 | 23 | 5.0 | 11.0 | 0.00 | 0.17 | 0.00 | 85 | 1005.8 |
| 20260506013528 | 47 | 40 | 5.0 | 12.0 | 0.00 | 0.17 | 0.00 | 85 | 1005.7 |
| 20260506013039 | 47 | 343 | 6.0 | 12.0 | 0.00 | 0.17 | 0.00 | 85 | 1005.7 |
| 20260506012522 | 47 | 89 | 4.0 | 10.0 | 0.00 | 0.17 | 0.00 | 84 | 1005.5 |
| 20260506012031 | 48 | 23 | 4.0 | 10.0 | 0.00 | 0.17 | 0.00 | 84 | 1005.4 |
| 20260506011522 | 48 | 37 | 6.0 | 9.0 | 0.00 | 0.17 | 0.00 | 84 | 1005.4 |
| 20260506011057 | 48 | 25 | 5.0 | 9.0 | 0.00 | 0.17 | 0.00 | 83 | 1005.2 |
| 20260506010540 | 49 | 37 | 4.0 | 8.0 | 0.00 | 0.17 | 0.00 | 83 | 1005.2 |
| 20260506010029 | 49 | 40 | 3.0 | 7.0 | 0.00 | 0.17 | 0.00 | 83 | 1005.2 |
| 20260506005536 | 49 | 6 | 3.0 | 7.0 | 0.00 | 0.17 | 0.00 | 83 | 1005.2 |
| 20260506005025 | 49 | 46 | 3.0 | 7.0 | 0.00 | 0.17 | 0.00 | 83 | 1005.0 |
| 20260506004536 | 49 | 11 | 4.0 | 7.0 | 0.00 | 0.17 | 0.00 | 84 | 1005.1 |
| 20260506004028 | 49 | 32 | 3.0 | 6.0 | 0.00 | 0.17 | 0.00 | 84 | 1005.0 |
| 20260506003540 | 49 | 16 | 2.0 | 9.0 | 0.00 | 0.17 | 0.00 | 84 | 1004.9 |
| 20260506003029 | 50 | 30 | 4.0 | 6.0 | 0.00 | 0.17 | 0.00 | 85 | 1004.9 |
| 20260506002538 | 50 | 349 | 2.0 | 7.0 | 0.00 | 0.17 | 0.00 | 85 | 1004.8 |
| 20260506002031 | 50 | 1 | 4.0 | 7.0 | 0.00 | 0.17 | 0.00 | 84 | 1004.8 |
| 20260506001601 | 50 | 1 | 1.0 | 6.0 | 0.00 | 0.17 | 0.00 | 85 | 1004.7 |
| 20260506001030 | 50 | 1 | 3.0 | 8.0 | 0.00 | 0.17 | 0.00 | 83 | 1004.7 |
| 20260506000539 | 50 | 1 | 3.0 | 8.0 | 0.00 | 0.17 | 0.00 | 82 | 1004.5 |
| 20260506000033 | 50 | 49 | 3.0 | 6.0 | 0.00 | 0.17 | 0.00 | 82 | 1004.4 |
| 20260505235537 | 50 | 103 | 3.0 | 9.0 | 0.00 | 0.17 | 0.00 | 82 | 1004.2 |
| 20260505234600 | 52 | 314 | 4.0 | 9.0 | 0.00 | 0.17 | 0.00 | 79 | 1004.1 |
| 20260505234030 | 53 | 314 | 4.0 | 9.0 | 0.00 | 0.17 | 0.00 | 76 | 1004.1 |
| 20260505233538 | 54 | 342 | 2.0 | 9.0 | 0.00 | 0.17 | 0.00 | 73 | 1004.1 |
| 20260505233047 | 56 | 9 | 4.0 | 9.0 | 0.00 | 0.17 | 0.00 | 67 | 1004.1 |
| 20260505232532 | 56 | 1 | 3.0 | 8.0 | 0.00 | 0.17 | 0.00 | 60 | 1003.9 |
| 20260505232051 | 57 | 330 | 5.0 | 9.0 | 0.00 | 0.17 | 0.00 | 56 | 1003.9 |
| 20260505231538 | 57 | 306 | 4.0 | 18.0 | 0.00 | 0.17 | 0.00 | 56 | 1003.9 |
| 20260505231026 | 58 | 319 | 11.0 | 18.0 | 0.00 | 0.17 | 0.00 | 54 | 1003.8 |
| 20260505230534 | 58 | 253 | 15.0 | 18.0 | 0.00 | 0.17 | 0.00 | 59 | 1003.8 |
| 20260505225522 | 58 | 245 | 14.0 | 18.0 | 0.00 | 0.17 | 0.00 | 61 | 1003.8 |
| 20260505225038 | 58 | 251 | 16.0 | 18.0 | 0.00 | 0.17 | 0.00 | 60 | 1003.8 |
| 20260505224525 | 58 | 247 | 16.0 | 18.0 | 0.00 | 0.17 | 0.00 | 59 | 1003.9 |
| 20260505224039 | 58 | 251 | 15.0 | 18.0 | 0.00 | 0.17 | 0.00 | 57 | 1003.9 |
| 20260505223523 | 58 | 247 | 15.0 | 18.0 | 0.00 | 0.17 | 0.00 | 57 | 1004.0 |
| 20260505223037 | 58 | 252 | 15.0 | 18.0 | 0.00 | 0.17 | 0.00 | 55 | 1004.0 |
| 20260505222527 | 58 | 251 | 15.0 | 18.0 | 0.00 | 0.17 | 0.00 | 62 | 1004.0 |
| 20260505222037 | 58 | 258 | 15.0 | 18.0 | 0.00 | 0.17 | 0.00 | 60 | 1004.1 |
| 20260505221546 | 58 | 261 | 14.0 | 17.0 | 0.00 | 0.17 | 0.00 | 58 | 1004.0 |
| 20260505221039 | 59 | 248 | 11.0 | 16.0 | 0.00 | 0.17 | 0.00 | 59 | 1004.2 |
| 20260505220530 | 59 | 253 | 13.0 | 16.0 | 0.00 | 0.17 | 0.00 | 57 | 1004.1 |
| 20260505220040 | 59 | 253 | 13.0 | 17.0 | 0.00 | 0.17 | 0.00 | 58 | 1004.0 |
| 20260505215528 | 59 | 253 | 14.0 | 18.0 | 0.00 | 0.17 | 0.00 | 56 | 1004.1 |
| 20260505215034 | 59 | 250 | 14.0 | 19.0 | 0.00 | 0.17 | 0.00 | 57 | 1004.2 |
| 20260505214540 | 59 | 246 | 16.0 | 19.0 | 0.00 | 0.17 | 0.00 | 61 | 1004.1 |
| 20260505214034 | 59 | 257 | 15.0 | 19.0 | 0.00 | 0.17 | 0.00 | 61 | 1004.0 |
| 20260505213608 | 59 | 253 | 13.0 | 17.0 | 0.00 | 0.17 | 0.00 | 53 | 1004.1 |
| 20260505213040 | 60 | 256 | 13.0 | 15.0 | 0.00 | 0.17 | 0.00 | 53 | 1004.1 |
| 20260505212528 | 60 | 247 | 12.0 | 15.0 | 0.00 | 0.17 | 0.00 | 54 | 1004.2 |
| 20260505212039 | 60 | 252 | 11.0 | 15.0 | 0.00 | 0.17 | 0.00 | 55 | 1004.2 |
| 20260505211558 | 60 | 242 | 12.0 | 17.0 | 0.00 | 0.17 | 0.00 | 55 | 1004.2 |
| 20260505211101 | 60 | 250 | 14.0 | 17.0 | 0.00 | 0.17 | 0.00 | 59 | 1004.2 |
| 20260505210527 | 60 | 248 | 15.0 | 16.0 | 0.00 | 0.17 | 0.00 | 61 | 1004.3 |
| 20260505205537 | 60 | 241 | 15.0 | 17.0 | 0.00 | 0.17 | 0.00 | 61 | 1004.1 |
| 20260505205029 | 60 | 249 | 14.0 | 17.0 | 0.00 | 0.17 | 0.00 | 58 | 1004.0 |
| 20260505204535 | 60 | 246 | 15.0 | 17.0 | 0.00 | 0.17 | 0.00 | 60 | 1004.1 |
| 20260505204041 | 60 | 250 | 15.0 | 18.0 | 0.00 | 0.17 | 0.00 | 62 | 1004.1 |
| 20260505203530 | 59 | 238 | 14.0 | 18.0 | 0.00 | 0.17 | 0.00 | 62 | 1004.1 |
| 20260505203057 | 59 | 240 | 14.0 | 18.0 | 0.00 | 0.17 | 0.00 | 56 | 1004.1 |
| 20260505202557 | 59 | 240 | 14.0 | 17.0 | 0.00 | 0.17 | 0.00 | 56 | 1004.1 |
| 20260505202030 | 59 | 233 | 15.0 | 18.0 | 0.00 | 0.17 | 0.00 | 61 | 1004.0 |
| 20260505201539 | 60 | 239 | 15.0 | 19.0 | 0.00 | 0.17 | 0.00 | 62 | 1004.0 |
| 20260505201028 | 59 | 230 | 17.0 | 19.0 | 0.00 | 0.17 | 0.00 | 61 | 1004.0 |
| 20260505200539 | 59 | 238 | 14.0 | 18.0 | 0.00 | 0.17 | 0.00 | 62 | 1004.0 |
| 20260505200034 | 59 | 234 | 13.0 | 19.0 | 0.00 | 0.17 | 0.00 | 58 | 1003.9 |
| 20260505195544 | 59 | 242 | 14.0 | 19.0 | 0.00 | 0.17 | 0.00 | 57 | 1003.9 |
| 20260505195043 | 59 | 241 | 16.0 | 19.0 | 0.00 | 0.17 | 0.00 | 62 | 1003.9 |
| 20260505194530 | 59 | 249 | 14.0 | 16.0 | 0.00 | 0.17 | 0.00 | 64 | 1003.9 |
| 20260505194045 | 58 | 223 | 10.0 | 14.0 | 0.00 | 0.17 | 0.00 | 61 | 1003.9 |
| 20260505193522 | 59 | 225 | 9.0 | 17.0 | 0.00 | 0.17 | 0.00 | 59 | 1003.9 |
| 20260505193100 | 59 | 236 | 14.0 | 18.0 | 0.00 | 0.17 | 0.00 | 63 | 1004.1 |
| 20260505192548 | 59 | 244 | 16.0 | 20.0 | 0.00 | 0.17 | 0.00 | 62 | 1004.1 |
| 20260505192113 | 59 | 244 | 16.0 | 20.0 | 0.00 | 0.17 | 0.00 | 64 | 1004.1 |
| 20260505191528 | 59 | 229 | 11.0 | 19.0 | 0.00 | 0.17 | 0.00 | 61 | 1004.2 |